Погода в Коргоне

Россия / Республика Алтай     51°05′59″N   84°02′17″E
темп.,
°C
ветер,
м/с
пор.,
м/с
влажн.,
%
обл.,
%
осадки,
мм/ч
давл.,
гПа
погр.,
м
12 мая, ср
ср1201:000юз118259 0.0 101710
04:00+1ююз117765 0.0 101610
07:00+3юз007293 0.0 101528
10:00+6с1262100 0.1 10141082
13:00+8ссз3355100 0.5 10131328
16:00+5ссз3490100 2.0 1015629
19:00+4сз019385 4.4 1017198
22:00+2ю119155 0.1 101913
13 мая, чт
чт1301:00+1зюз118850 0.2 101913
04:00+2юз118588 0.0 101811
07:00+3ююз118155 0.0 101820
10:00+8зсз115960 0.3 10151147
13:00+8з2265100 1.9 10141103
16:00+8зюз2463100 1.0 10131334
19:00+7зюз126598 1.1 1013936
22:00+4зюз1296100 0.8 1016455
14 мая, пт
пт1401:00+2з1199100 4.9 1017157
04:00+1зсз00100100 4.2 101685
07:00+2ссз12100100 6.0 1017136
10:00+3ссз238994 0.3 1018549
13:00+5ссз237878 0.5 1018922
16:00+5ссз338386 0.2 1020743
19:00+3ссз3499100 0.4 1024478
22:00+2юв019484 0.1 1027104
15 мая, сб
сб1501:000ююв119568 0.1 102726
04:00−1ююв119542 0.0 102811
07:00+2вюв118952 0.0 102845
10:00+7св115913 0.0 1026527
13:00+11с22548 0.0 10251072
16:00+13ссз235128 0.0 10231466
19:00+11ссз23639 0.0 1024558
22:00+5юз11845 0.0 102510
16 мая, вс
вс1601:00+5ю21835 0.0 102510
04:00+4ю11825 0.0 102410
07:00+7ю117318 0.0 102313
10:00+13ссз125388 0.0 1022663
13:00+16ссз2250100 0.1 10201344
16:00+15зсз1255100 1.2 10201056
19:00+14сз226336 1.8 1020495
22:00+9зсз008399 0.9 102110